Weather in Ostrowiec Swietokrzyski

Poland     50°56′37″N   21°24′18″E
temp.,
°C
wind,
m/s
gust,
m/s
humid.,
%
clouds,
%
prec.,
mm/h
press.,
hPa
HPBL,
m
11 may, tue
tue1123:00+13se411935 0.0 1016228
02:00+12se412945 0.0 1016243
05:00+11se513905 0.0 1015244
08:00+15se713722 0.0 1015398
11:00+20se811565 0.0 1014716
14:00+22se810505 0.0 10131019
17:00+22se79585 0.0 1012958
20:00+17se614705 0.0 1012514
12 may, wed
wed1223:00+14se615685 0.0 1012488
02:00+13se716645 0.0 1011455
05:00+12se615675 0.0 1011444
08:00+16se715685 0.0 1010624
11:00+21ese811545 0.0 10101370
14:00+22ese895232 0.0 10091930
17:00+17e9117087 0.0 1009993
20:00+13ese511740 0.0 1008515
13 may, thu
thu1323:00+11ese713740 0.0 1008533
02:00+8e511840 0.0 1007348
05:00+6e512880 0.0 1006348
08:00+11e610738 0.0 1004625
11:00+12ese6871100 0.0 1003824
14:00+12ese4678100 0.0 1002629
17:00+11ene3587100 0.0 1001303
20:00+11ene3693100 0.2 1001310
14 may, fri
fri1423:00+11nnw2297100 0.1 100163
02:00+11w3696100 0.1 1001269
05:00+10sw3796100 0.6 1001413
08:00+10sw4894100 1.4 1002414
11:00+10sw5995100 1.3 1004501
14:00+10sw51093100 3.9 1005501
17:00+10sw5993100 1.7 1006457
20:00+10wsw51094100 2.3 1007502
15 may, sat
sat1523:00+9wsw4993100 0.2 1008392
02:00+7sw379698 0.0 1010175
05:00+9wsw51188100 0.0 1010417
08:00+9wsw51192100 0.7 1011423
11:00+10w5993100 0.9 1013465
14:00+10w4788100 0.9 1013433
17:00+13nw3575100 0.0 1013783
20:00+10n1191100 0.1 101311